[[{"header":{"parameterUnit":"m.s-1","parameterCategory":1,"la1":30.2991,"la2":30.254,"lo1":-89.0895,"lo2":-89.0444,"dy":0.0017,"dx":0.0017,"nx":28,"ny":28,"refTime":"2024-03-13T21:00:00:Z","depth":0,"parameterNumber":2,"parameterNumberName":"U-component_of_WINDS"},"data":[0,0,0,0,0,0,0,0,0,0,0,0,0,0,0,0,0,0,0,0,0,0,0,0,0,0,0,0,0,0,0,0,0,0,0,0,0,0,0,0,0,0,0,0,0,0,0,0,0,0,0,0,0,0,0,0,0,0,-4.5793,-4.5795,0,-4.5934,-4.5935,-4.5937,-4.5924,-4.5922,-4.5919,-4.5917,-4.6061,-4.6066,-4.6072,0,0,0,0,0,0,0,0,0,0,0,0,0,-4.5515,-4.552,-4.5793,-4.5795,-4.5797,-4.5933,-4.5935,-4.5937,-4.5924,-4.5922,-4.5919,-4.5916,-4.6059,-4.6066,-4.6073,0,0,0,0,0,0,0,0,0,0,0,0,0,-4.5644,-4.5522,-4.5793,-4.5807,-4.5809,-4.5933,-4.5935,-4.5938,-4.5925,-4.5921,-4.5918,-4.5915,-4.6057,-4.6065,-4.6074,-4.6193,0,0,-4.61,-4.6104,0,0,0,0,0,0,0,0,-4.5636,-4.5654,-4.5803,-4.5806,-4.5809,-4.5908,-4.589,-4.6023,-4.5926,-4.5881,-4.5917,-4.5914,-4.6013,-4.6025,-4.6058,-4.6199,-4.6206,-4.6101,-4.6107,-4.611,-4.6113,0,0,0,0,0,0,0,-4.5627,-4.5648,-4.5849,-4.5805,-4.5809,-4.5806,-4.5821,-4.5915,-4.5963,-4.5885,-4.5884,-4.5901,-4.6014,-4.605,-4.6061,-4.6208,-4.6101,-4.6109,-4.6114,-4.6118,-4.6455,-4.6458,0,0,0,0,0,0,-4.5615,-4.564,-4.5844,-4.5853,-4.5713,-4.5814,-4.583,-4.5879,-4.5962,-4.5972,-4.5903,-4.59,-4.6036,-4.6051,-4.6066,-4.6211,-4.611,-4.6118,-4.6123,-4.6451,-4.6455,-4.6459,0,0,0,0,0,0,-4.5609,-4.5633,-4.5839,-4.5747,-4.5773,-4.5822,-4.5877,-4.5884,-4.592,-4.5976,-4.5985,-4.5931,-4.6034,-4.6054,-4.6162,-4.6215,-4.6122,-4.613,-4.6447,-4.6452,-4.6457,-4.65,0,0,0,0,0,0,-4.5601,-4.5631,-4.5677,-4.5748,-4.5778,-4.5931,-4.5881,-4.5889,-4.5935,-4.5932,-4.6005,-4.6014,-4.6033,-4.6149,-4.617,-4.6226,-4.6137,-4.6442,-4.6449,-4.6456,-4.6494,-4.6507,-4.6517,0,0,0,0,0,-4.5591,-4.5683,-4.5679,-4.5704,-4.5835,-4.5934,-4.5951,-4.5972,-4.594,-4.5986,-4.6022,-4.6011,-4.6207,-4.616,-4.6184,-4.6243,-4.6439,-4.6447,-4.6455,-4.6489,-4.6504,-4.6517,0,0,0,0,0,0,-4.5616,-4.5692,-4.5689,-4.5806,-4.5864,-4.5932,-4.599,-4.5987,-4.6055,-4.6049,-4.6072,-4.6089,-4.6197,-4.6231,-4.6177,-4.6363,-4.6318,-4.6332,-4.6336,-4.6351,-4.6362,-4.635,-4.6144,0,0,0,0,0,-4.5635,-4.5709,-4.5772,-4.587,-4.5899,-4.594,-4.5984,-4.5995,-4.6056,-4.608,-4.6124,-4.6184,-4.6259,-4.6307,-4.6379,-4.6501,-4.6516,-4.6554,-4.6565,-4.6574,-4.6585,-4.6652,-4.6669,-4.6487,-4.6487,-4.6487,0,0,-4.5675,-4.5726,-4.5771,-4.5876,-4.5922,-4.5998,-4.596,-4.6042,-4.6099,-4.6092,-4.6196,-4.6232,-4.63,-4.6414,-4.6467,-4.6446,-4.6639,-4.6585,-4.6592,-4.6597,-4.6662,-4.6679,-4.6694,-4.6493,-4.6491,-4.6491,0,0,-4.5786,-4.5833,-4.5919,-4.5967,-4.6037,-4.6064,-4.6085,-4.6155,-4.6178,-4.6283,-4.6279,-4.6348,-4.6477,-4.6525,-4.6567,-4.67,-4.6692,-4.6723,-4.6782,-4.6847,-4.6861,-4.6874,-4.692,-4.6937,-4.6734,-4.6734,-4.6734,0,-4.5826,-4.5941,-4.5963,-4.6047,-4.6093,-4.6092,-4.6179,-4.6225,-4.6315,-4.6347,-4.6323,-4.6485,-4.6531,-4.6657,-4.669,-4.6724,-4.6748,-4.6713,-4.6857,-4.6871,-4.6883,-4.6927,-4.6945,-4.6737,-4.6737,-4.6737,-4.6736,0,-4.5987,-4.6067,-4.6128,-4.6216,-4.627,-4.6354,-4.639,-4.6442,-4.645,-4.648,-4.6587,-4.6643,-4.6726,-4.6758,-4.6766,-4.6886,-4.6871,-4.6852,-4.6807,-4.6903,-4.6945,-4.6962,-4.6742,-4.6741,-4.674,-4.6739,0,0,-4.6113,-4.6215,-4.6237,-4.6277,-4.6356,-4.6419,-4.6505,-4.6587,-4.663,-4.6694,-4.6766,-4.6877,-4.686,-4.6908,-4.6922,-4.6979,-4.708,-4.6954,-4.6956,-4.6974,-4.7215,-4.7227,-4.7246,-4.7078,-4.7081,-4.7084,-4.7209,0,-4.6231,-4.6382,-4.6406,-4.6539,-4.6613,-4.6615,-4.669,-4.6747,-4.6779,-4.6846,-4.6881,-4.6958,-4.6932,-4.696,-4.7018,-4.7056,-4.7129,-4.7048,-4.7144,-4.7147,-4.7124,-4.7268,-4.7281,-4.7396,-4.7226,-4.7229,-4.7231,0,-4.6387,-4.6455,-4.6596,-4.6666,-4.6698,-4.6765,-4.6843,-4.6908,-4.6974,-4.6993,-4.7047,-4.7055,-4.7145,-4.7099,-4.7223,-4.7167,-4.7208,-4.7234,-4.7239,-4.7246,-4.7192,-4.7277,-4.7434,-4.745,-4.7257,-4.7255,-4.7253,0,-4.6463,-4.6591,-4.6691,-4.6726,-4.6811,-4.6858,-4.6896,-4.6959,-4.7007,-4.7076,-4.7107,-4.7186,-4.7228,-4.7289,-4.7318,-4.7282,-4.744,-4.7396,-4.7458,-4.7457,-4.7488,-4.7485,-4.765,-4.7519,-4.7519,-4.7519,-4.7518,0,-4.659,-4.6675,-4.6726,-4.6788,-4.6884,-4.6912,-4.7007,-4.7044,-4.71,-4.7169,-4.7177,-4.7241,-4.7277,-4.7348,-4.7372,-4.7471,-4.749,-4.7508,-4.7512,-4.7505,-4.7503,-4.753,-4.7522,-4.7523,-4.7522,-4.7521,-4.7521,0,-4.6689,-4.6727,-4.6837,-4.691,-4.693,-4.6998,-4.706,-4.712,-4.7153,-4.724,-4.7262,-4.7313,-4.7397,-4.7433,-4.7536,-4.7552,-4.7664,-4.7665,-4.7641,-4.7642,-4.7701,-4.7694,-4.7887,-4.7914,-4.7768,-4.7769,-4.777,0,-4.6766,-4.6832,-4.6913,-4.6959,-4.6999,-4.7074,-4.7124,-4.7156,-4.7207,-4.7289,-4.7339,-4.7423,-4.7491,-4.7625,-4.7671,-4.775,-4.7751,-4.7813,-4.7762,-4.7753,-4.7749,-4.7744,-4.775,-4.7821,-4.7823,-4.7824,-4.7825,0,-4.6898,-4.6914,-4.6985,-4.7064,-4.7124,-4.7187,-4.7249,-4.7287,-4.7329,-4.7387,-4.7472,-4.7525,-4.7631,-4.7714,-4.7797,-4.7836,-4.7837,-4.7841,-4.7859,-4.7851,-4.7834,-4.7842,-4.7664,-4.7836,-4.7834,-4.7834,-4.7833,-4.7833,-4.6987,-4.7046,-4.7112,-4.7191,-4.7242,-4.73,-4.736,-4.7401,-4.7473,-4.7561,-4.7577,-4.7668,-4.7734,-4.7845,-4.7888,-4.796,-4.7945,-4.7971,-4.7977,-4.7983,-4.7985,-4.7825,-4.7976,-4.7976,-4.7975,-4.7975,-4.7975,0,-4.7117,-4.7161,-4.7234,-4.7321,-4.7384,-4.7382,-4.7451,-4.7504,-4.7584,-4.7646,-4.7714,-4.7813,-4.7894,-4.7948,-4.803,-4.8078,-4.808,-4.8098,-4.8093,-4.8102,-4.7995,-4.797,-4.8094,-4.8094,-4.8094,-4.8094,-4.8094,-4.8094,-4.7192,-4.7291,-4.7316,-4.7441,-4.7484,-4.7573,-4.7613,-4.7667,-4.7716,-4.7827,-4.7894,-4.793,-4.7989,-4.8076,-4.8151,-4.8165,-4.8193,-4.8212,-4.8224,-4.8122,-4.811,-4.8098,-4.8074,-4.8218,-4.8219,-4.8325,-4.8326,-4.8327]},{"header":{"parameterUnit":"m.s-1","parameterCategory":1,"la1":30.2991,"la2":30.254,"lo1":-89.0895,"lo2":-89.0444,"dy":0.0017,"dx":0.0017,"nx":28,"ny":28,"refTime":"2024-03-13T21:00:00:Z","depth":0,"parameterNumber":3,"parameterNumberName":"V-component_of_WINDS"},"data":[0,0,0,0,0,0,0,0,0,0,0,0,0,0,0,0,0,0,0,0,0,0,0,0,0,0,0,0,0,0,0,0,0,0,0,0,0,0,0,0,0,0,0,0,0,0,0,0,0,0,0,0,0,0,0,0,0,0,1.5543,1.5544,0,1.5631,1.5632,1.5633,1.5681,1.5681,1.5681,1.5681,1.5775,1.5777,1.5779,0,0,0,0,0,0,0,0,0,0,0,0,0,1.5422,1.5424,1.5543,1.5544,1.5545,1.5631,1.5632,1.5633,1.5681,1.5681,1.5681,1.5681,1.5774,1.5777,1.578,0,0,0,0,0,0,0,0,0,0,0,0,0,1.5489,1.5424,1.5543,1.5579,1.5583,1.563,1.5632,1.5633,1.5681,1.5681,1.5681,1.5681,1.5773,1.5776,1.578,1.5798,0,0,1.5791,1.5792,0,0,0,0,0,0,0,0,1.5485,1.5493,1.5573,1.5577,1.5581,1.5645,1.5623,1.5689,1.5681,1.5644,1.5681,1.5682,1.5732,1.5739,1.5755,1.5803,1.5807,1.5791,1.5793,1.5795,1.5796,0,0,0,0,0,0,0,1.548,1.5489,1.5578,1.5574,1.5579,1.5593,1.5603,1.5636,1.5686,1.5647,1.5651,1.566,1.5734,1.5751,1.5757,1.5808,1.5791,1.5794,1.5796,1.5798,1.588,1.588,0,0,0,0,0,0,1.5469,1.5485,1.5575,1.558,1.5532,1.5595,1.5606,1.5624,1.5686,1.5695,1.566,1.5662,1.5745,1.5753,1.5761,1.5789,1.5795,1.5798,1.58,1.588,1.588,1.588,0,0,0,0,0,0,1.5466,1.5476,1.5571,1.5534,1.5547,1.5597,1.5617,1.5626,1.5643,1.5695,1.5705,1.5668,1.5746,1.5756,1.5789,1.5792,1.58,1.5803,1.588,1.588,1.588,1.5843,0,0,0,0,0,0,1.5462,1.5475,1.5481,1.5534,1.5549,1.5596,1.5618,1.5628,1.5649,1.5653,1.5705,1.5714,1.5746,1.5784,1.5793,1.5798,1.5806,1.588,1.588,1.588,1.5844,1.5842,1.584,0,0,0,0,0,1.5458,1.5467,1.5481,1.5492,1.5557,1.5596,1.5605,1.5641,1.5649,1.5657,1.5691,1.5713,1.5791,1.5787,1.5797,1.5803,1.588,1.588,1.588,1.5845,1.5842,1.584,0,0,0,0,0,0,1.5414,1.5475,1.5491,1.5517,1.5551,1.5604,1.5615,1.5636,1.567,1.5672,1.5716,1.5728,1.5758,1.5784,1.5778,1.5826,1.5838,1.584,1.5808,1.5805,1.5803,1.5796,1.5809,0,0,0,0,0,1.5407,1.5433,1.5485,1.5503,1.552,1.5564,1.5583,1.5607,1.5645,1.566,1.5697,1.5733,1.5767,1.5788,1.5821,1.5848,1.5862,1.5858,1.5856,1.5854,1.5855,1.5875,1.5874,1.588,1.588,1.588,0,0,1.5394,1.543,1.5444,1.5495,1.5525,1.5552,1.5576,1.5603,1.5625,1.5665,1.5699,1.5727,1.5772,1.5803,1.5818,1.5826,1.5857,1.5854,1.5852,1.5855,1.5875,1.5874,1.5874,1.588,1.588,1.588,0,0,1.5384,1.5413,1.5432,1.5462,1.5506,1.5536,1.5541,1.5592,1.5612,1.5647,1.5678,1.5705,1.5761,1.5792,1.5815,1.582,1.5843,1.583,1.5818,1.5837,1.5836,1.5836,1.584,1.584,1.5831,1.5831,1.5831,0,1.5362,1.5402,1.544,1.5466,1.5489,1.5526,1.5548,1.5575,1.5628,1.5645,1.5652,1.5724,1.5756,1.5797,1.5798,1.5815,1.5824,1.5823,1.5833,1.5833,1.5834,1.5838,1.5839,1.5829,1.5829,1.5829,1.583,0,1.5374,1.5403,1.5413,1.5464,1.5488,1.5512,1.5555,1.5575,1.5599,1.5629,1.5666,1.5707,1.575,1.5761,1.5784,1.5806,1.581,1.5824,1.5837,1.5831,1.5836,1.5837,1.5827,1.5827,1.5828,1.5828,0,0,1.5337,1.5409,1.5413,1.5437,1.549,1.5514,1.5541,1.5583,1.5601,1.5637,1.5662,1.571,1.5725,1.5751,1.5778,1.5794,1.5799,1.5808,1.581,1.5806,1.5828,1.5817,1.5818,1.5814,1.5815,1.5815,1.5825,0,1.5336,1.5384,1.5419,1.5455,1.5483,1.5521,1.5545,1.5581,1.5611,1.564,1.5674,1.5708,1.5723,1.574,1.5758,1.5794,1.5804,1.5794,1.584,1.5841,1.5828,1.582,1.5808,1.5816,1.5827,1.5827,1.5828,0,1.5339,1.5374,1.5412,1.5465,1.5478,1.5498,1.5541,1.5569,1.5612,1.5633,1.5663,1.5692,1.5725,1.5735,1.5782,1.5775,1.5796,1.5817,1.5819,1.5825,1.5834,1.5828,1.5819,1.582,1.583,1.583,1.583,0,1.531,1.5367,1.5398,1.5417,1.5479,1.5493,1.552,1.5563,1.5587,1.5625,1.5642,1.5683,1.5707,1.5739,1.578,1.5783,1.5824,1.5836,1.5844,1.5843,1.5851,1.585,1.5846,1.5863,1.5863,1.5863,1.5863,0,1.5305,1.5327,1.5386,1.5405,1.5432,1.5474,1.5501,1.5531,1.557,1.5597,1.5633,1.5658,1.5709,1.5742,1.5774,1.581,1.5819,1.5839,1.5847,1.5836,1.5834,1.5851,1.5852,1.5863,1.5863,1.5863,1.5863,0,1.5277,1.5317,1.5353,1.5409,1.5424,1.5441,1.5491,1.5512,1.5544,1.5579,1.5589,1.5641,1.5681,1.5725,1.578,1.5802,1.5836,1.5847,1.5821,1.5826,1.5832,1.5831,1.584,1.5844,1.5856,1.5856,1.5856,0,1.5271,1.5289,1.5347,1.5367,1.5393,1.5425,1.545,1.5494,1.5519,1.5571,1.5587,1.563,1.5666,1.5729,1.5773,1.5816,1.583,1.583,1.5836,1.5825,1.5832,1.583,1.5834,1.5828,1.5827,1.5827,1.5827,0,1.5256,1.5276,1.5309,1.5351,1.5379,1.5414,1.5451,1.5466,1.5518,1.5544,1.5585,1.5614,1.5671,1.5714,1.5763,1.5793,1.5819,1.5825,1.5829,1.5818,1.5802,1.5813,1.5817,1.5824,1.5824,1.5824,1.5825,1.5825,1.524,1.5259,1.5304,1.5341,1.5373,1.5407,1.543,1.5466,1.5501,1.555,1.5574,1.5616,1.5663,1.5731,1.5761,1.5796,1.5804,1.581,1.5811,1.5812,1.581,1.5796,1.5805,1.5805,1.5805,1.5805,1.5805,0,1.5229,1.526,1.5294,1.5344,1.5374,1.5396,1.5438,1.5462,1.5498,1.5539,1.5574,1.5624,1.5666,1.5714,1.5761,1.578,1.5793,1.5791,1.579,1.5797,1.58,1.5792,1.5779,1.5779,1.5779,1.5779,1.5779,1.5779,1.5227,1.5261,1.5286,1.5337,1.5369,1.5409,1.5432,1.5465,1.5497,1.555,1.5586,1.5616,1.5661,1.5712,1.5753,1.5766,1.5782,1.5776,1.5793,1.5794,1.5797,1.5799,1.5792,1.5779,1.5779,1.5788,1.5788,1.5788]}]]